Weather History for KSAF - November, 2012

Change the Weather History Date:

Friday, November 2, 2012

  Actual Average Record
Temperature  
Mean Temperature 52 °F -  
Max Temperature 69 °F 57 °F 70 °F (2008)
Min Temperature 34 °F 33 °F 23 °F (1997)
Degree Days  
Heating Degree Days 14    
Growing Degree Days 2 (Base 50)    
Moisture  
Dew Point 10 °F    
Average Humidity 22    
Maximum Humidity 36    
Minimum Humidity 11    
Precipitation  
Precipitation 0.00 in - - ()
Sea Level Pressure  
Sea Level Pressure 29.96 in    
Wind  
Wind Speed 7 mph (North)    
Max Wind Speed 14 mph    
Max Gust Speed 21 mph    
Visibility 10 miles    
Events      
Averages and records for this station are not official NWS values.
T = Trace of Precipitation, MM = Missing Value Source: NWS Daily Summary

Daily Weather History Graph

Daily Weather History Graph

Search for Another Location

Airport or City:

Trip Planner

Search our weather history database for the weather conditions in past years. The results will help you decide how hot, cold, wet, or windy it might be!

Date:

Astronomy

Nov. 02, 2012 Rise Set
Actual Time 7:27 AM MDT 6:07 PM MDT
Civil Twilight 7:01 AM MDT 6:34 PM MDT
Nautical Twilight 6:31 AM MDT 7:04 PM MDT
Astronomical Twilight 6:01 AM MDT 7:34 PM MDT
Moon 9:01 PM MDT (11/2) 10:46 AM MDT (11/2)
Length of Visible Light 11h 32m
Length of Day
10h 39m
Waning Gibbous, 87% of the Moon is Illuminated
Nov 2
Waning Gibbous
Nov 6
Last Quarter
Nov 13
New
Nov 20
First Quarter
Nov 28
Full

Hourly Weather History & Observations

Time (MDT) Temp. Windchill Dew Point Humidity Pressure Visibility Wind Dir Wind Speed Gust Speed Precip Events Conditions
12:53 AM 35.1 °F 30.1 °F 8.1 °F 33% 29.94 in 10.0 mi North 5.8 mph - N/A   Clear
1:53 AM 35.1 °F 32.2 °F 9.0 °F 34% 29.93 in 10.0 mi NE 3.5 mph - N/A   Clear
2:53 AM 34.0 °F 28.0 °F 9.0 °F 35% 29.94 in 10.0 mi NNE 6.9 mph - N/A   Clear
3:53 AM 39.9 °F 33.9 °F 10.9 °F 31% 29.92 in 10.0 mi NNE 9.2 mph - N/A   Clear
4:53 AM 37.0 °F 33.3 °F 10.0 °F 33% 29.95 in 10.0 mi North 4.6 mph - N/A   Clear
5:53 AM 36.0 °F 29.0 °F 10.9 °F 36% 29.97 in 10.0 mi North 9.2 mph - N/A   Clear
6:53 AM 37.9 °F 30.5 °F 10.0 °F 32% 29.99 in 10.0 mi North 11.5 mph - N/A   Clear
7:53 AM 37.0 °F 29.3 °F 10.0 °F 33% 30.02 in 10.0 mi North 11.5 mph - N/A   Clear
8:53 AM 44.1 °F 37.4 °F 10.0 °F 25% 30.04 in 10.0 mi North 13.8 mph - N/A   Clear
9:53 AM 51.1 °F - 9.0 °F 18% 30.02 in 10.0 mi North 9.2 mph - N/A   Clear
10:53 AM 55.9 °F - 9.0 °F 15% 30.01 in 10.0 mi North 5.8 mph - N/A   Clear
11:53 AM 60.1 °F - 7.0 °F 12% 30.02 in 10.0 mi Variable 4.6 mph - N/A   Clear
12:53 PM 63.0 °F - 6.1 °F 11% 29.99 in 10.0 mi Calm Calm - N/A   Clear
1:53 PM 66.0 °F - 9.0 °F 11% 29.95 in 10.0 mi SW 5.8 mph - N/A   Clear
2:53 PM 66.9 °F - 12.9 °F 12% 29.92 in 10.0 mi West 9.2 mph - N/A   Clear
3:53 PM 69.1 °F - 16.0 °F 13% 29.87 in 10.0 mi West 8.1 mph 20.7 mph N/A   Clear
4:53 PM 66.9 °F - 12.9 °F 12% 29.89 in 10.0 mi WSW 13.8 mph - N/A   Clear
5:53 PM 63.0 °F - 14.0 °F 15% 29.91 in 10.0 mi SW 10.4 mph - N/A   Clear
6:53 PM 57.0 °F - 10.9 °F 16% 29.95 in 10.0 mi North 9.2 mph - N/A   Clear
7:53 PM 48.9 °F - 10.0 °F 21% 30.01 in 10.0 mi North 6.9 mph - N/A   Clear
8:53 PM 52.0 °F - 12.0 °F 20% 29.99 in 10.0 mi NNE 9.2 mph - N/A   Clear
9:53 PM 46.9 °F - 10.0 °F 22% 29.98 in 10.0 mi NNE 9.2 mph - N/A   Clear
10:53 PM 46.0 °F 41.9 °F 8.1 °F 21% 29.98 in 10.0 mi North 8.1 mph - N/A   Clear
11:53 PM 46.9 °F - 8.1 °F 21% 29.96 in 10.0 mi North 5.8 mph - N/A   Clear